User: anonymous   Login
Location: Unspecified
(0.0000°N, 0.0000°E)
Time: 05:22:01
(UTC+00:00)
Language:

COSMOS 2437 - Orbit

View from above orbital plane
View from above orbital plane
View from above satellite
View from above satellite

Ground track
Ground track

The orbit data is extracted from the following two-line orbital elements,

1 32954U 08025B   18146.42878881 +.00000022 +00000-0 +91868-4 0  9994
2 32954 082.5041 027.2900 0019400 270.5521 089.3335 12.42695658453956
Epoch (UTC): 26 May 2018 10:17:27
Eccentricity: 0.0019400
inclination: 82.5041°
perigee height: 1480 km
apogee height: 1510 km
right ascension of ascending node: 27.2900°
argument of perigee: 270.5521°
revolutions per day: 12.42695658
mean anomaly at epoch: 89.3335°
orbit number at epoch: 45395

The dashed part of the orbit path shows where the satellite is in the earth's shadow,  

DLR